Regional Weather Roundup
Issued by NWS

Home | Current Version | Previous Version | Graphics & Text | Print | Product List | Glossary Off
Versions: 1 2 3 4 5 6 7 8 9 10 11 12 13 14 15 16 17 18 19 20 21 22 23 24 25 26 27 28 29 30 31 32 33 34 35 36 37 38 39 40 41 42 43 44 45 46 47 48 49 50

000
ASUS43 KLOT 282003
RWRIL

ILLINOIS REGIONAL WEATHER ROUNDUP
NATIONAL WEATHER SERVICE CHICAGO/ROMEOVILLE IL
300 PM CDT TUE MAR 28 2017

NOTE: "FAIR" INDICATES FEW OR NO CLOUDS BELOW 12,000 FEET WITH NO
SIGNIFICANT WEATHER AND/OR OBSTRUCTIONS TO VISIBILITY.

* THESE STATIONS ARE NOT UNDER NWS QUALITY CONTROL. THEY ALSO MAY NOT
  REPORT WEATHER SUCH AS PRECIPITATION OR FOG.

ILZ001-002-007-009-015-016-024-282100-
NORTHWEST ILLINOIS

CITY           SKY/WX    TMP DP  RH WIND       PRES   REMARKS
MOLINE         CLOUDY    52  41  66 NE6       30.12F
STERLING*      CLOUDY    48  40  73 E6        30.15S
SAVANNA*       CLOUDY    48  39  70 N6        30.15S
$$

ILZ003-004-008-010-011-017-018-282100-
NORTH CENTRAL ILLINOIS

CITY           SKY/WX    TMP DP  RH WIND       PRES   REMARKS
ROCKFORD       CLOUDY    50  39  66 E8        30.16S
FREEPORT*      CLOUDY    48  39  71 E5        30.16S
ROCHELLE*      CLOUDY    47  41  77 N9        30.14F
DE KALB*       CLOUDY    47  41  77 N9        30.14S
PERU*          CLOUDY    47  40  75 N9        30.14S
$$

ILZ005-006-012>014-019>023-282100-
NORTHEAST ILLINOIS

CITY           SKY/WX    TMP DP  RH WIND       PRES   REMARKS
CHICAGO-OHARE  PTSUNNY   50  38  63 NE12      30.13S
CHICAGO-MIDWAY CLOUDY    46  37  71 NE12G21   30.14R
AURORA         CLOUDY    48  39  71 N6        30.14S
LANSING*       CLOUDY    42  39  90 N10       30.15R
JOLIET*        CLOUDY    49  40  72 N7        30.14S
WAUKEGAN       PTSUNNY   42  37  82 NE12      30.14S
DUPAGE AIRPORT CLOUDY    50  41  71 NE9       30.12F
WHEELING       CLOUDY    46  39  76 NE12      30.15R
MORRIS*        CLOUDY    48  39  72 CALM      30.13S
NORTHERLY ISL    N/A     40  36  86 N13         N/A
$$

LMZ740>746-282100-
SOUTHERN LAKE MICHIGAN

STATION/POSITION SKY/WX   TEMP    WIND        PRES    VSBY  WAVE
                          AIR SEA DIR/SP/G                  HT/PER
                          (F)     (DEG/KT/KT) (MB)    (MI)  (FT/S)
CALUMET HARBOR             39     330/ 14/ 18 1020.4R
BURNS HARBOR               39     350/ 12/ 15 1021.0R
$$

ILZ025>027-034>036-040-047-049-050-058-095>099-282100-
WEST-CENTRAL ILLINOIS

CITY           SKY/WX    TMP DP  RH WIND       PRES   REMARKS
QUINCY         CLOUDY    53  48  83 NE8       30.09F
GALESBURG*     CLOUDY    51  44  77 NE7       30.12S
MACOMB*        CLOUDY    51  47  85 E3        30.14F
JACKSONVILLE*  CLOUDY    55  47  74 NE9       30.10F
PITTSFIELD*    CLOUDY    53  50  88 NE8       30.10F FOG
$$

ILZ028>032-037-038-041>044-048-051>054-059>061-282100-
CENTRAL ILLINOIS

CITY           SKY/WX    TMP DP  RH WIND       PRES   REMARKS
PONTIAC        CLOUDY    51  45  80 N9        30.13S
BLOOMINGTON    CLOUDY    52  44  74 N8        30.12S
DECATUR        CLOUDY    56  44  64 N10       30.10S
PEORIA         CLOUDY    53  43  68 N8        30.12F
LACON*         CLOUDY    50  42  73 N5        30.12S
LINCOLN*       CLOUDY    53  47  79 N7        30.11F
SPRINGFIELD    CLOUDY    57  46  66 NE8       30.10F
TAYLORVILLE    NOT AVBL
$$

ILZ033-039-045-046-055>057-062-063-282100-
EAST-CENTRAL ILLINOIS

CITY           SKY/WX    TMP DP  RH WIND       PRES   REMARKS
CHAMPAIGN      CLOUDY    58  43  57 N10       30.09F
RANTOUL*       CLOUDY    56  45  68 N13       30.10S
MATTOON        CLOUDY    57  47  69 N10       30.07S
PARIS*         CLOUDY    57  48  71 N5        30.09R
$$

ILZ079-100>102-282100-
SOUTHWEST ILLINOIS

CITY           SKY/WX    TMP DP  RH WIND       PRES   REMARKS
ALTON          CLOUDY    55  48  76 NE6       30.09F
BELLEVILLE     CLOUDY    59  49  71 NE8       30.06F
CAHOKIA*       CLOUDY    59  48  67 CALM      30.07F
SPARTA*        CLOUDY    56  48  76 N3        30.09F
$$

ILZ064>066-069>071-074>076-080>082-084>086-088>090-092>094-282100-
SOUTH-CENTRAL ILLINOIS

CITY           SKY/WX    TMP DP  RH WIND       PRES   REMARKS
CARBONDALE     CLOUDY    57  51  80 NW9       30.08R
CAIRO*         CLOUDY    61  53  77 N8        30.05F
EFFINGHAM*     CLOUDY    60  50  69 N5        30.08F HAZE
MARION         CLOUDY    61  54  77 N6        30.08S
MT. VERNON     PTSUNNY   62  50  64 N8        30.06F
CENTRALIA*     CLOUDY    57  50  77 N5        30.08S
SALEM*         CLOUDY    59  48  67 S5        30.08S
$$

ILZ067-068-072-073-078-083-087-091-282100-
SOUTHEAST ILLINOIS

CITY           SKY/WX    TMP DP  RH WIND       PRES   REMARKS
LAWRENCEVILLE  CLOUDY    62  50  64 NW6       30.05F
FLORA*         CLOUDY    60  50  68 N6        30.07S
FAIRFIELD*     CLOUDY    61  50  68 N7        30.05S
HARRISBURG*    CLOUDY    59  52  77 NW3       30.07S
ROBINSON*      CLOUDY    60  50  68 N3        30.07R
CARMI*         CLOUDY    61  52  71 NW5       30.05S
$$

ABBREVIATIONS USED IN REMARKS
   TC - TEMPERATURE IN CELSIUS
  WCI - WIND CHILL INDEX
   HX - HEAT INDEX
  VSB - VISIBILITY
$$





USA.gov is the U.S. government's official web portal to all federal, state and local government web resources and services.